Tracking 35280 objects as of 7-Sep-2026
HD Live streaming from Space Station
objects crossing your sky now

IUS R/B(2)

Track IUS R/B(2) now!


NORAD ID: 23615
Int'l Code: 1995-035D
Launch date: July 13, 1995
Source: United States (US)
Launch site: AIR FORCE EASTERN TEST RANGE (AFETR)

Note: This is a ROCKET BODY
Your satellite tracking list
Your tracking list is empty




NASA's NSSDC Master Catalog

Two Line Element Set (TLE):
1 23615U 95035D   26240.10602301 -.00000183  00000-0  00000+0 0  9998
2 23615  15.6073 341.0353 0009555 187.3626 179.2130  1.00483044114134
Source of the keplerian elements: AFSPC